This is the latest recevied weather packets stored in our database for station/object KD8TSA. If no packets are shown the sender has not sent any weather packets the latest 10 day(s).
| Time | Temp. | Humidity | Pressure | Rain* | Wind** | Luminosity | Snow |
|---|---|---|---|---|---|---|---|
| 1777915297 | 19.44° C | 68% | 1008.2 hPa | 0 mm | - | 292 W/m² | - |
| 1777914084 | 20° C | 67% | 1008.4 hPa | 0 mm | - | 384 W/m² | - |
| 1777913472 | 19.44° C | 68% | 1008.3 hPa | 0 mm | - | 363 W/m² | - |
| 1777908924 | 18.89° C | 69% | 1008.7 hPa | 0 mm | - | 612 W/m² | - |
| 1777908318 | 18.89° C | 68% | 1008.8 hPa | 0 mm | - | 538 W/m² | - |
| 1777908015 | 18.89° C | 69% | 1008.8 hPa | 0 mm | - | 844 W/m² | - |
| 1777906496 | 17.22° C | 73% | 1009 hPa | 0 mm | - | 731 W/m² | - |
| 1777905889 | 17.22° C | 72% | 1009 hPa | 0 mm | - | 736 W/m² | - |
| 1777905585 | 17.22° C | 71% | 1009.1 hPa | 0 mm | - | 547 W/m² | - |
| 1777905282 | 17.22° C | 72% | 1008.9 hPa | 0 mm | - | 677 W/m² | - |
| 1777904980 | 17.22° C | 72% | 1009.3 hPa | 0 mm | - | 667 W/m² | - |
| 1777904678 | 16.67° C | 72% | 1009.1 hPa | 0 mm | - | 611 W/m² | - |
| 1777904071 | 16.11° C | 73% | 1009.3 hPa | 0 mm | - | 538 W/m² | - |
| 1777903767 | 15.56° C | 75% | 1009.3 hPa | 0 mm | - | 521 W/m² | - |
| 1777903464 | 15° C | 76% | 1009.3 hPa | 0 mm | - | 502 W/m² | - |
| 1777901949 | 14.44° C | 76% | 1009.4 hPa | 0 mm | - | 592 W/m² | - |
| 1777901646 | 14.44° C | 76% | 1009.5 hPa | 0 mm | - | 237 W/m² | - |
| 1777901343 | 13.89° C | 76% | 1009.9 hPa | 0 mm | - | 275 W/m² | - |
| 1777901041 | 13.89° C | 76% | 1009.8 hPa | 0 mm | - | 211 W/m² | - |
| 1777900738 | 13.89° C | 76% | 1009.6 hPa | 0 mm | - | 212 W/m² | - |
| 1777900435 | 13.33° C | 76% | 1009.5 hPa | 0 mm | - | 206 W/m² | - |
| 1777900132 | 13.33° C | 76% | 1009.5 hPa | 0 mm | - | 180 W/m² | - |
| 1777899829 | 13.33° C | 76% | 1009.5 hPa | 0 mm | - | 203 W/m² | - |
| 1777899525 | 13.33° C | 76% | 1009.8 hPa | 0 mm | - | 187 W/m² | - |
| 1777898315 | 12.78° C | 76% | 1009.9 hPa | 0 mm | - | 81 W/m² | - |
* Rain latest hour (hover to see other rain measurements)
** Current wind speed in m/s (hover to see current wind gust speed)